Printer-friendly version

IAU Minor Planet Center

Minor Planet Center

(84) Klio

Orbital Elements

The following orbital elements are taken from MPO 595
   (84) Klio
Epoch 2002 Nov. 22.0 TT = JDT 2452600.5                 Goffin
M 278.78370              (2000.0)            P               Q
n   0.27164780     Peri.   14.61461     +0.95120299     +0.29615161
a   2.3611954      Node   327.74732     -0.29689283     +0.80189576
e   0.2378526      Incl.    9.34385     -0.08406857     +0.51890020
P   3.63           H    9.32          G   0.15           U   0
From 452 observations at 58 oppositions, 1865-1999, mean residual 0".56.
An explanation of the orbital elements is available.

These orbital elements are also available in forms suitable for loading into a number of popular planetarium-type software programs.


Ephemeris

The following ephemeris is at intervals of five days. A daily ephemeris covering the same time interval is also available.

Date    TT    R. A. (2000) Decl.     Delta      r     Elong.  Phase     V
 
2003 07 10    22 39.59   -13 33.0    1.018    1.850   130.8    24.6    11.8
2003 07 15    22 40.52   -12 57.6    0.977    1.843   135.1    22.9    11.7
2003 07 20    22 40.52   -12 23.9    0.940    1.837   139.7    21.0    11.5
2003 07 25    22 39.57   -11 52.1    0.906    1.831   144.5    18.8    11.4
2003 07 30    22 37.68   -11 21.9    0.876    1.825   149.6    16.4    11.2
2003 08 04    22 34.87   -10 53.5    0.850    1.820   154.9    13.7    11.1
2003 08 09    22 31.25   -10 26.4    0.829    1.816   160.3    10.8    10.9
2003 08 14    22 26.94   -10 00.6    0.813    1.812   166.0     7.8    10.7
2003 08 19    22 22.09   -09 35.8    0.801    1.809   171.7     4.6    10.5
2003 08 24    22 16.92   -09 11.8    0.795    1.806   177.2     1.5    10.3
2003 08 29    22 11.66   -08 48.3    0.795    1.804   175.8     2.3    10.4
2003 09 03    22 06.56   -08 25.0    0.800    1.802   170.1     5.5    10.6
2003 09 08    22 01.87   -08 01.7    0.810    1.801   164.3     8.7    10.7
2003 09 13    21 57.79   -07 38.1    0.825    1.800   158.7    11.7    10.9
2003 09 18    21 54.48   -07 14.1    0.845    1.800   153.2    14.6    11.1
2003 09 23    21 52.04   -06 49.5    0.870    1.800   147.8    17.3    11.2
2003 09 28    21 50.57   -06 24.0    0.898    1.801   142.7    19.7    11.4
2003 10 03    21 50.10   -05 57.5    0.931    1.803   137.9    21.9    11.5
2003 10 08    21 50.62   -05 29.7    0.967    1.805   133.3    23.8    11.6
2003 10 13    21 52.10   -05 00.5    1.006    1.807   128.9    25.5    11.8
2003 10 18    21 54.48   -04 29.8    1.047    1.810   124.7    26.9    11.9

Back to Bright Minor Planets

Astronomical Headlines Index


Valid HTML 4.01!